Weather History for Marathon, FL

Change the Weather History Date:

Thursday, November 7, 2013

  Actual Average Record
Temperature  
Mean Temperature 80 °F 77 °F  
Max Temperature 84 °F 82 °F 87 °F (1996)
Min Temperature 75 °F 72 °F 58 °F (2010)
Degree Days  
Heating Degree Days 0 0  
Month to date heating degree days 0 0  
Since 1 July heating degree days 0 0  
Cooling Degree Days 15 12  
Month to date cooling degree days 99 86  
Year to date cooling degree days 4960 4525  
Growing Degree Days 28 (Base 50)    
Moisture  
Dew Point 74 °F    
Average Humidity 84    
Maximum Humidity 94    
Minimum Humidity 74    
Precipitation  
Precipitation 0.00 in 0.09 in 0.00 in (2014)
Month to date precipitation 0.42 0.89  
Year to date precipitation 43.93 42.22  
Snow  
Snow 0.00 in - - ()
Month to date snowfall 0.0  
Since 1 July snowfall 0.0  
Since 1 September snowfall 0.0  
Snow Depth 0.00 in    
Sea Level Pressure  
Sea Level Pressure 29.97 in    
Wind  
Wind Speed 8 mph (NNE)    
Max Wind Speed 13 mph    
Max Gust Speed 17 mph    
Visibility 10 miles    
Events      
T = Trace of Precipitation, MM = Missing Value Source: NWS Daily Summary

Daily Weather History Graph

Daily Weather History Graph

Search for Another Location

Airport:

Trip Planner

Search our weather history database for the weather conditions in past years. The results will help you decide how hot, cold, wet, or windy it might be!

Date:

Astronomy

Nov. 07, 2013 Rise Set
Actual Time 6:35 AM EST 5:40 PM EST
Civil Twilight 6:11 AM EST 6:04 PM EST
Nautical Twilight 5:44 AM EST 6:31 PM EST
Astronomical Twilight 5:17 AM EST 6:58 PM EST
Moon 10:37 AM EST (11/7) 9:54 PM EST (11/7)
Length of Visible Light 11h 52m
Length of Day
11h 05m
Waxing Crescent, 22% of the Moon is Illuminated
Nov 7
Waxing Crescent
Nov 10
First Quarter
Nov 17
Full
Nov 25
Last Quarter
Dec 2
New

Hourly Weather History & Observations

Time (EST) Temp. Heat Index Dew Point Humidity Pressure Visibility Wind Dir Wind Speed Gust Speed Precip Events Conditions
12:53 AM 77.0 °F - 75.0 °F 94% 29.99 in 10.0 mi ENE 8.1 mph - N/A   Clear
1:53 AM 77.0 °F - 75.0 °F 94% 29.96 in 10.0 mi NE 8.1 mph - N/A   Clear
2:53 AM 77.0 °F - 73.9 °F 90% 29.95 in 10.0 mi NE 9.2 mph - N/A   Clear
3:53 AM 77.0 °F - 73.9 °F 90% 29.94 in 10.0 mi NE 8.1 mph - N/A   Partly Cloudy
4:53 AM 75.9 °F - 73.9 °F 94% 29.94 in 10.0 mi NNE 8.1 mph - N/A   Clear
5:53 AM 75.9 °F - 73.9 °F 94% 29.96 in 10.0 mi NNE 6.9 mph - N/A   Clear
6:53 AM 75.9 °F - 73.9 °F 94% 29.98 in 10.0 mi NNE 6.9 mph - N/A   Clear
7:53 AM 78.1 °F - 73.9 °F 87% 29.99 in 10.0 mi North 6.9 mph - N/A   Clear
8:53 AM 78.1 °F - 73.9 °F 87% 30.01 in 10.0 mi NNE 6.9 mph - N/A   Clear
9:53 AM 78.1 °F - 73.0 °F 84% 30.02 in 10.0 mi NNE 10.4 mph - N/A   Clear
10:53 AM 81.0 °F 85.8 °F 73.0 °F 77% 30.01 in 10.0 mi NNE 10.4 mph - N/A   Clear
11:53 AM 82.9 °F 89.4 °F 73.9 °F 74% 30.01 in 10.0 mi North 9.2 mph - N/A   Clear
12:53 PM 82.9 °F 88.8 °F 73.0 °F 72% 29.97 in 10.0 mi NNE 8.1 mph - N/A   Clear
1:53 PM 82.9 °F 89.4 °F 73.9 °F 74% 29.95 in 10.0 mi North 6.9 mph - N/A   Clear
2:53 PM 81.0 °F 86.7 °F 75.0 °F 82% 29.94 in 10.0 mi Variable 5.8 mph - N/A   Clear
3:53 PM 81.0 °F 85.8 °F 73.0 °F 77% 29.93 in 10.0 mi NW 6.9 mph - N/A   Clear
4:53 PM 80.1 °F 83.6 °F 71.1 °F 74% 29.94 in 10.0 mi NW 8.1 mph - N/A   Clear
5:53 PM 78.1 °F - 72.0 °F 81% 29.95 in 10.0 mi NW 6.9 mph - N/A   Clear
6:53 PM 78.1 °F - 73.9 °F 87% 29.96 in 10.0 mi NNW 10.4 mph - N/A   Clear
7:53 PM 78.1 °F - 73.9 °F 87% 29.96 in 10.0 mi NNW 10.4 mph - N/A   Clear
8:53 PM 78.1 °F - 75.0 °F 90% 29.96 in 10.0 mi North 8.1 mph - N/A   Clear
9:53 PM 78.1 °F - 75.0 °F 90% 29.97 in 10.0 mi NE 8.1 mph - N/A   Clear
10:53 PM 78.1 °F - 75.0 °F 90% 29.97 in 10.0 mi NNE 4.6 mph - N/A   Clear
11:53 PM 77.0 °F - 73.0 °F 88% 29.96 in 10.0 mi North 5.8 mph - N/A   Clear